| time (UTC) | temp C | wind direction | speed KPH | gust KPH | rain 1hr cm | rain 24hr cm | rain mn cm | humidity % | barometer mb |
| 20260507160513 | 13 | 15 | 0.0 | 6.4 | 0.00 | 0.10 | 0.10 | 79 | 1012.8 |
| 20260507160010 | 13 | 29 | 0.0 | 1.6 | 0.00 | 0.10 | 0.10 | 80 | 1012.6 |
| 20260507155505 | 13 | 30 | 4.8 | 6.4 | 0.00 | 0.10 | 0.10 | 80 | 1012.8 |
| 20260507155003 | 13 | 99 | 0.0 | 4.8 | 0.00 | 0.10 | 0.10 | 81 | 1012.7 |
| 20260507154459 | 13 | 30 | 6.4 | 8.0 | 0.00 | 0.10 | 0.10 | 81 | 1012.7 |
| 20260507153956 | 13 | 116 | 4.8 | 8.0 | 0.00 | 0.10 | 0.10 | 81 | 1012.6 |
| 20260507153453 | 13 | 66 | 1.6 | 6.4 | 0.00 | 0.10 | 0.10 | 82 | 1012.6 |
| 20260507152949 | 13 | 75 | 0.0 | 8.0 | 0.00 | 0.10 | 0.10 | 81 | 1012.3 |
| 20260507152445 | 13 | 84 | 4.8 | 4.8 | 0.00 | 0.10 | 0.10 | 79 | 1012.7 |
| 20260507151941 | 13 | 14 | 4.8 | 4.8 | 0.00 | 0.10 | 0.10 | 77 | 1012.7 |
| 20260507151438 | 13 | 14 | 3.2 | 6.4 | 0.00 | 0.10 | 0.10 | 77 | 1012.8 |
| 20260507150935 | 13 | 66 | 3.2 | 9.7 | 0.00 | 0.10 | 0.10 | 77 | 1012.8 |
| 20260507150432 | 13 | 66 | 0.0 | 8.0 | 0.00 | 0.10 | 0.10 | 77 | 1012.6 |
| 20260507145928 | 13 | 51 | 3.2 | 6.4 | 0.00 | 0.10 | 0.10 | 77 | 1012.4 |
| 20260507145424 | 13 | 105 | 6.4 | 9.7 | 0.00 | 0.10 | 0.10 | 76 | 1012.3 |
| 20260507144921 | 13 | 0 | 1.6 | 4.8 | 0.00 | 0.10 | 0.10 | 77 | 1012.2 |
| 20260507144418 | 13 | 66 | 0.0 | 6.4 | 0.00 | 0.10 | 0.10 | 79 | 1012.3 |
| 20260507143915 | 13 | 240 | 1.6 | 8.0 | 0.00 | 0.10 | 0.10 | 80 | 1012.5 |
| 20260507143412 | 13 | 38 | 3.2 | 6.4 | 0.00 | 0.10 | 0.10 | 81 | 1012.4 |
| 20260507142909 | 13 | 77 | 3.2 | 8.0 | 0.00 | 0.10 | 0.10 | 82 | 1012.6 |
| 20260507142404 | 13 | 90 | 0.0 | 8.0 | 0.00 | 0.10 | 0.10 | 82 | 1012.5 |
| 20260507141902 | 13 | 25 | 4.8 | 11.3 | 0.00 | 0.10 | 0.10 | 82 | 1012.5 |
| 20260507141358 | 13 | 36 | 3.2 | 6.4 | 0.00 | 0.10 | 0.10 | 84 | 1012.6 |
| 20260507140854 | 13 | 28 | 3.2 | 4.8 | 0.00 | 0.10 | 0.10 | 84 | 1012.6 |
| 20260507140351 | 13 | 60 | 1.6 | 9.7 | 0.00 | 0.10 | 0.10 | 84 | 1012.6 |
| 20260507135849 | 13 | 28 | 3.2 | 8.0 | 0.00 | 0.10 | 0.10 | 85 | 1012.3 |
| 20260507135346 | 13 | 160 | 0.0 | 3.2 | 0.00 | 0.10 | 0.10 | 84 | 1012.7 |
| 20260507134843 | 13 | 40 | 0.0 | 6.4 | 0.00 | 0.10 | 0.10 | 83 | 1012.9 |
| 20260507134339 | 13 | 47 | 4.8 | 8.0 | 0.00 | 0.10 | 0.10 | 83 | 1012.6 |
| 20260507133835 | 13 | 135 | 8.0 | 12.9 | 0.00 | 0.10 | 0.10 | 83 | 1012.4 |
| 20260507133331 | 13 | 56 | 3.2 | 8.0 | 0.00 | 0.10 | 0.10 | 84 | 1012.2 |
| 20260507132830 | 13 | 99 | 11.3 | 17.7 | 0.00 | 0.10 | 0.10 | 82 | 1012.3 |
| 20260507132326 | 13 | 39 | 4.8 | 6.4 | 0.00 | 0.10 | 0.10 | 84 | 1012.3 |
| 20260507131823 | 13 | 34 | 11.3 | 12.9 | 0.00 | 0.10 | 0.10 | 85 | 1012.6 |
| 20260507131320 | 13 | 36 | 6.4 | 11.3 | 0.00 | 0.10 | 0.10 | 84 | 1012.3 |
| 20260507130816 | 13 | 65 | 3.2 | 11.3 | 0.00 | 0.10 | 0.10 | 84 | 1012.2 |
| 20260507130314 | 13 | 71 | 0.0 | 8.0 | 0.00 | 0.10 | 0.10 | 86 | 1012.1 |
| 20260507125813 | 13 | 34 | 4.8 | 9.7 | 0.00 | 0.10 | 0.10 | 88 | 1012.2 |
| 20260507125310 | 13 | 60 | 4.8 | 4.8 | 0.00 | 0.10 | 0.10 | 89 | 1012.6 |
| 20260507124807 | 13 | 37 | 6.4 | 11.3 | 0.00 | 0.10 | 0.10 | 91 | 1012.2 |
| 20260507124303 | 13 | 39 | 4.8 | 6.4 | 0.00 | 0.10 | 0.10 | 92 | 1012.6 |
| 20260507123802 | 13 | 45 | 3.2 | 6.4 | 0.00 | 0.10 | 0.10 | 93 | 1012.4 |
| 20260507123259 | 13 | 345 | 1.6 | 4.8 | 0.00 | 0.10 | 0.10 | 94 | 1012.2 |
| 20260507122754 | 13 | 26 | 0.0 | 4.8 | 0.00 | 0.10 | 0.10 | 94 | 1012.1 |
| 20260507122250 | 13 | 95 | 3.2 | 4.8 | 0.00 | 0.10 | 0.10 | 94 | 1011.6 |
| 20260507121746 | 13 | 26 | 0.0 | 4.8 | 0.00 | 0.10 | 0.10 | 94 | 1011.9 |
| 20260507121242 | 13 | 99 | 6.4 | 6.4 | 0.00 | 0.10 | 0.10 | 95 | 1012.0 |
| 20260507120738 | 13 | 8 | 0.0 | 4.8 | 0.00 | 0.10 | 0.10 | 95 | 1012.1 |
| 20260507120235 | 13 | 78 | 1.6 | 3.2 | 0.00 | 0.10 | 0.10 | 95 | 1011.8 |
| 20260507115731 | 13 | 59 | 3.2 | 3.2 | 0.00 | 0.10 | 0.10 | 95 | 1012.1 |
| 20260507115227 | 13 | 81 | 0.0 | 4.8 | 0.00 | 0.10 | 0.10 | 96 | 1012.3 |
| 20260507114723 | 13 | 117 | 0.0 | 3.2 | 0.00 | 0.10 | 0.10 | 96 | 1012.2 |
| 20260507114221 | 13 | 7 | 0.0 | 3.2 | 0.00 | 0.10 | 0.10 | 96 | 1012.3 |
| 20260507113718 | 13 | 114 | 0.0 | 3.2 | 0.00 | 0.10 | 0.10 | 96 | 1012.1 |
| 20260507113215 | 13 | 123 | 0.0 | 3.2 | 0.00 | 0.10 | 0.10 | 96 | 1011.9 |
| 20260507112712 | 13 | 41 | 3.2 | 4.8 | 0.00 | 0.10 | 0.10 | 96 | 1011.7 |
| 20260507112209 | 13 | 99 | 0.0 | 4.8 | 0.00 | 0.10 | 0.10 | 97 | 1011.6 |
| 20260507111707 | 13 | 69 | 0.0 | 3.2 | 0.00 | 0.10 | 0.10 | 97 | 1011.8 |
| 20260507111203 | 13 | 23 | 0.0 | 3.2 | 0.00 | 0.10 | 0.10 | 97 | 1012.0 |
| 20260507110659 | 13 | 60 | 0.0 | 3.2 | 0.00 | 0.10 | 0.10 | 97 | 1012.0 |
| 20260507110156 | 13 | 29 | 0.0 | 4.8 | 0.00 | 0.10 | 0.10 | 97 | 1011.9 |
| 20260507105653 | 13 | 105 | 0.0 | 1.6 | 0.00 | 0.10 | 0.10 | 97 | 1011.5 |
| 20260507105149 | 13 | 90 | 3.2 | 4.8 | 0.00 | 0.10 | 0.10 | 97 | 1011.3 |
| 20260507104647 | 13 | 40 | 3.2 | 4.8 | 0.00 | 0.10 | 0.10 | 98 | 1011.6 |
| 20260507104143 | 13 | 248 | 0.0 | 0.0 | 0.00 | 0.10 | 0.10 | 98 | 1011.6 |
| 20260507103639 | 13 | 81 | 0.0 | 0.0 | 0.00 | 0.10 | 0.10 | 98 | 1011.3 |
| 20260507103136 | 13 | 184 | 3.2 | 3.2 | 0.00 | 0.10 | 0.10 | 97 | 1011.3 |
| 20260507102632 | 13 | 54 | 0.0 | 4.8 | 0.05 | 0.10 | 0.10 | 97 | 1011.1 |
| 20260507102128 | 13 | 32 | 4.8 | 8.0 | 0.05 | 0.10 | 0.10 | 97 | 1011.0 |
| 20260507101624 | 13 | 68 | 0.0 | 6.4 | 0.05 | 0.10 | 0.10 | 97 | 1011.0 |
| 20260507101120 | 13 | 96 | 0.0 | 6.4 | 0.05 | 0.10 | 0.10 | 97 | 1011.3 |
| 20260507100618 | 13 | 41 | 3.2 | 4.8 | 0.05 | 0.08 | 0.08 | 97 | 1011.4 |
| 20260507100116 | 13 | 99 | 3.2 | 3.2 | 0.05 | 0.08 | 0.08 | 97 | 1011.6 |
| 20260507095614 | 13 | 33 | 3.2 | 4.8 | 0.00 | 0.08 | 0.08 | 96 | 1011.5 |
| 20260507095110 | 13 | 20 | 0.0 | 3.2 | 0.05 | 0.08 | 0.08 | 97 | 1011.0 |
| 20260507094606 | 13 | 0 | 1.6 | 4.8 | 0.05 | 0.08 | 0.08 | 97 | 1011.3 |
| 20260507094103 | 13 | 7 | 0.0 | 3.2 | 0.00 | 0.05 | 0.05 | 97 | 1011.4 |
| 20260507093601 | 14 | 0 | 0.0 | 3.2 | 0.00 | 0.05 | 0.05 | 96 | 1011.2 |
| 20260507093059 | 14 | 45 | 3.2 | 4.8 | 0.05 | 0.05 | 0.05 | 96 | 1011.2 |
| 20260507092555 | 14 | 26 | 3.2 | 6.4 | 0.05 | 0.05 | 0.05 | 96 | 1011.1 |
| 20260507092052 | 14 | 10 | 3.2 | 4.8 | 0.05 | 0.05 | 0.05 | 96 | 1011.5 |
| 20260507091549 | 15 | 37 | 4.8 | 4.8 | 0.18 | 0.05 | 0.05 | 95 | 1011.3 |
| 20260507091045 | 15 | 195 | 1.6 | 3.2 | 0.18 | 0.05 | 0.05 | 95 | 1011.3 |
| 20260507090541 | 15 | 210 | 0.0 | 6.4 | 0.05 | 0.03 | 0.03 | 94 | 1011.6 |
| 20260507090038 | 15 | 180 | 0.0 | 3.2 | 0.00 | 0.00 | 0.00 | 94 | 1011.5 |
| 20260507085535 | 15 | 352 | 0.0 | 6.4 | 0.00 | 0.00 | 0.00 | 94 | 1011.1 |
| 20260507085032 | 15 | 228 | 0.0 | 6.4 | 0.00 | 0.00 | 0.00 | 94 | 1011.1 |
| 20260507084528 | 15 | 270 | 0.0 | 11.3 | 0.00 | 0.00 | 0.00 | 94 | 1010.8 |
| 20260507084025 | 15 | 100 | 4.8 | 14.5 | 0.05 | 0.00 | 0.00 | 94 | 1010.6 |
| 20260507083521 | 15 | 41 | 3.2 | 4.8 | 0.05 | 0.00 | 0.00 | 93 | 1010.6 |
| 20260507083019 | 16 | 21 | 3.2 | 4.8 | 0.00 | 0.00 | 0.00 | 93 | 1010.6 |
| 20260507082515 | 16 | 34 | 6.4 | 9.7 | 0.00 | 0.00 | 0.00 | 92 | 1010.9 |
| 20260507082011 | 16 | 11 | 4.8 | 4.8 | 0.00 | 0.00 | 0.00 | 92 | 1010.8 |
| 20260507081507 | 17 | 18 | 3.2 | 8.0 | 0.00 | 0.00 | 0.00 | 93 | 1010.3 |
| 20260507081004 | 17 | 17 | 6.4 | 12.9 | 0.00 | 0.00 | 0.00 | 93 | 1010.3 |
| 20260507080500 | 18 | 19 | 3.2 | 11.3 | 0.00 | 0.00 | 0.00 | 93 | 1010.0 |
| 20260507075955 | 19 | 12 | 0.0 | 4.8 | 0.00 | 0.00 | 0.00 | 92 | 1009.8 |
| 20260507075452 | 20 | 21 | 4.8 | 4.8 | 0.00 | 0.00 | 0.00 | 91 | 1009.7 |
| 20260507074949 | 19 | 195 | 0.0 | 1.6 | 0.00 | 0.00 | 0.00 | 91 | 1010.0 |
| 20260507074446 | 19 | 180 | 0.0 | 1.6 | 0.00 | 0.00 | 0.00 | 91 | 1009.8 |
| 20260507073944 | 19 | 191 | 3.2 | 3.2 | 0.00 | 0.00 | 0.00 | 90 | 1009.9 |
| 20260507073440 | 19 | 14 | 0.0 | 1.6 | 0.00 | 0.00 | 0.00 | 90 | 1009.7 |
| 20260507072936 | 20 | 180 | 1.6 | 1.6 | 0.00 | 0.00 | 0.00 | 90 | 1009.8 |
| 20260507072434 | 20 | 180 | 0.0 | 1.6 | 0.00 | 0.00 | 0.00 | 89 | 1009.9 |
| 20260507071931 | 20 | 148 | 0.0 | 3.2 | 0.00 | 0.00 | 0.00 | 89 | 1010.2 |
| 20260507071428 | 20 | 270 | 0.0 | 3.2 | 0.00 | 0.00 | 0.00 | 88 | 1010.1 |
| 20260507070925 | 20 | 342 | 0.0 | 6.4 | 0.00 | 0.00 | 0.00 | 87 | 1010.0 |
| 20260507070423 | 20 | 287 | 0.0 | 8.0 | 0.00 | 0.00 | 0.00 | 87 | 1009.6 |
| 20260507065919 | 20 | 319 | 3.2 | 6.4 | 0.00 | 0.00 | 0.00 | 87 | 1009.6 |
| 20260507065416 | 20 | 239 | 3.2 | 9.7 | 0.00 | 0.00 | 0.00 | 87 | 1009.7 |
| 20260507064913 | 20 | 90 | 0.0 | 9.7 | 0.00 | 0.00 | 0.00 | 87 | 1009.3 |
| 20260507064411 | 20 | 331 | 1.6 | 8.0 | 0.00 | 0.00 | 0.00 | 87 | 1009.3 |
| 20260507063909 | 20 | 290 | 4.8 | 6.4 | 0.00 | 0.00 | 0.00 | 87 | 1009.2 |
| 20260507063406 | 20 | 239 | 4.8 | 6.4 | 0.00 | 0.00 | 0.00 | 87 | 1009.1 |
| 20260507062902 | 20 | 201 | 3.2 | 3.2 | 0.00 | 0.00 | 0.00 | 88 | 1009.0 |
| 20260507062359 | 20 | 253 | 4.8 | 8.0 | 0.00 | 0.00 | 0.00 | 87 | 1009.1 |
| 20260507061857 | 20 | 263 | 1.6 | 3.2 | 0.00 | 0.00 | 0.00 | 88 | 1009.0 |
| 20260507061355 | 20 | 170 | 3.2 | 8.0 | 0.00 | 0.00 | 0.00 | 87 | 1009.0 |
| 20260507060853 | 20 | 180 | 0.0 | 4.8 | 0.00 | 0.00 | 0.00 | 88 | 1008.9 |
| 20260507060349 | 20 | 255 | 3.2 | 6.4 | 0.00 | 0.00 | 0.00 | 88 | 1009.1 |
| 20260507055846 | 20 | 243 | 1.6 | 3.2 | 0.00 | 0.00 | 0.00 | 88 | 1009.2 |
| 20260507055341 | 20 | 185 | 0.0 | 4.8 | 0.00 | 0.00 | 0.00 | 88 | 1009.2 |
| 20260507054838 | 20 | 270 | 0.0 | 3.2 | 0.00 | 0.00 | 0.00 | 88 | 1009.2 |
| 20260507054334 | 20 | 192 | 0.0 | 3.2 | 0.00 | 0.00 | 0.00 | 87 | 1009.2 |
| 20260507053832 | 20 | 270 | 0.0 | 3.2 | 0.00 | 0.00 | 0.00 | 86 | 1009.3 |
| 20260507053329 | 20 | 209 | 0.0 | 6.4 | 0.00 | 0.00 | 0.00 | 86 | 1009.4 |
| 20260507052828 | 20 | 257 | 3.2 | 4.8 | 0.00 | 0.00 | 0.00 | 86 | 1009.5 |
| 20260507052324 | 20 | 189 | 3.2 | 4.8 | 0.00 | 0.00 | 0.00 | 87 | 1009.6 |
| 20260507051822 | 20 | 251 | 3.2 | 6.4 | 0.00 | 0.00 | 0.00 | 87 | 1009.8 |
| 20260507051320 | 20 | 215 | 0.0 | 4.8 | 0.00 | 0.00 | 0.00 | 87 | 1010.0 |
| 20260507050816 | 20 | 220 | 4.8 | 4.8 | 0.00 | 0.00 | 0.00 | 87 | 1010.3 |
| 20260507050312 | 20 | 215 | 0.0 | 4.8 | 0.00 | 0.00 | 0.00 | 87 | 1010.3 |
| 20260507045810 | 20 | 270 | 0.0 | 6.4 | 0.00 | 0.00 | 0.00 | 88 | 1010.5 |
| 20260507045307 | 20 | 270 | 0.0 | 4.8 | 0.00 | 0.00 | 0.00 | 87 | 1010.5 |
| 20260507044803 | 20 | 124 | 3.2 | 3.2 | 0.00 | 0.00 | 0.00 | 87 | 1010.5 |
| 20260507044259 | 20 | 254 | 0.0 | 11.3 | 0.00 | 0.00 | 0.00 | 87 | 1010.5 |
| 20260507043755 | 20 | 270 | 3.2 | 4.8 | 0.00 | 0.00 | 0.00 | 87 | 1010.5 |
| 20260507043253 | 20 | 180 | 0.0 | 8.0 | 0.00 | 0.00 | 0.00 | 88 | 1010.6 |
| 20260507042749 | 20 | 217 | 3.2 | 9.7 | 0.00 | 0.00 | 0.00 | 88 | 1010.4 |
| 20260507042244 | 20 | 255 | 0.0 | 4.8 | 0.00 | 0.00 | 0.00 | 88 | 1010.8 |
| 20260507041742 | 20 | 229 | 3.2 | 6.4 | 0.00 | 0.00 | 0.00 | 87 | 1010.3 |
| 20260507041238 | 20 | 209 | 0.0 | 4.8 | 0.00 | 0.00 | 0.00 | 87 | 1010.2 |
| 20260507040735 | 20 | 187 | 0.0 | 4.8 | 0.00 | 0.00 | 0.00 | 87 | 1010.5 |
| 20260507040231 | 20 | 281 | 0.0 | 4.8 | 0.00 | 0.00 | 0.00 | 87 | 1010.5 |
| 20260507035727 | 20 | 261 | 0.0 | 4.8 | 0.00 | 0.33 | 0.33 | 87 | 1010.5 |
| 20260507035223 | 20 | 254 | 0.0 | 6.4 | 0.00 | 0.33 | 0.33 | 87 | 1010.5 |
| 20260507034721 | 20 | 210 | 0.0 | 4.8 | 0.00 | 0.33 | 0.33 | 87 | 1010.6 |
| 20260507034217 | 20 | 248 | 4.8 | 8.0 | 0.00 | 0.33 | 0.33 | 87 | 1010.6 |
| 20260507033716 | 20 | 240 | 0.0 | 8.0 | 0.00 | 0.33 | 0.33 | 87 | 1010.2 |
| 20260507033213 | 20 | 270 | 0.0 | 6.4 | 0.00 | 0.33 | 0.33 | 88 | 1010.2 |
| 20260507032710 | 20 | 180 | 0.0 | 3.2 | 0.00 | 0.33 | 0.33 | 89 | 1010.0 |
| 20260507032206 | 20 | 243 | 0.0 | 8.0 | 0.00 | 0.33 | 0.33 | 89 | 1010.1 |
| 20260507031703 | 20 | 253 | 3.2 | 8.0 | 0.00 | 0.33 | 0.33 | 90 | 1010.0 |
| 20260507031159 | 19 | 0 | 0.0 | 4.8 | 0.00 | 0.33 | 0.33 | 91 | 1010.0 |
| 20260507030656 | 19 | 0 | 0.0 | 3.2 | 0.00 | 0.33 | 0.33 | 91 | 1010.0 |
| 20260507030154 | 19 | 257 | 0.0 | 3.2 | 0.00 | 0.33 | 0.33 | 91 | 1009.9 |
| 20260507025651 | 19 | 180 | 0.0 | 4.8 | 0.00 | 0.33 | 0.33 | 91 | 1010.1 |
| 20260507025148 | 19 | 352 | 0.0 | 1.6 | 0.00 | 0.33 | 0.33 | 92 | 1010.1 |
| 20260507024646 | 19 | 84 | 1.6 | 4.8 | 0.00 | 0.33 | 0.33 | 92 | 1009.9 |
| 20260507024143 | 19 | 270 | 0.0 | 3.2 | 0.00 | 0.33 | 0.33 | 92 | 1010.2 |
| 20260507023638 | 19 | 234 | 0.0 | 6.4 | 0.00 | 0.33 | 0.33 | 92 | 1010.2 |
| 20260507023136 | 19 | 84 | 0.0 | 4.8 | 0.00 | 0.33 | 0.33 | 92 | 1010.3 |
| 20260507022633 | 18 | 188 | 0.0 | 3.2 | 0.00 | 0.33 | 0.33 | 92 | 1010.4 |
| 20260507022128 | 18 | 102 | 0.0 | 4.8 | 0.00 | 0.33 | 0.33 | 92 | 1010.2 |
| 20260507021625 | 18 | 320 | 0.0 | 3.2 | 0.00 | 0.33 | 0.33 | 93 | 1010.5 |
| 20260507021120 | 18 | 180 | 1.6 | 3.2 | 0.00 | 0.33 | 0.33 | 93 | 1010.5 |
| 20260507020619 | 18 | 228 | 3.2 | 3.2 | 0.00 | 0.33 | 0.33 | 93 | 1010.4 |
| 20260507020115 | 18 | 180 | 0.0 | 1.6 | 0.00 | 0.33 | 0.33 | 93 | 1010.5 |
| 20260507015614 | 18 | 180 | 0.0 | 0.0 | 0.00 | 0.33 | 0.33 | 93 | 1010.6 |
| 20260507015111 | 18 | 194 | 0.0 | 1.6 | 0.00 | 0.33 | 0.33 | 93 | 1010.7 |
| 20260507014607 | 18 | 257 | 0.0 | 1.6 | 0.00 | 0.33 | 0.33 | 93 | 1010.7 |
| 20260507014103 | 18 | 209 | 0.0 | 3.2 | 0.00 | 0.33 | 0.33 | 93 | 1010.5 |
| 20260507013600 | 18 | 23 | 0.0 | 1.6 | 0.00 | 0.33 | 0.33 | 93 | 1010.5 |
| 20260507013057 | 18 | 254 | 0.0 | 1.6 | 0.00 | 0.33 | 0.33 | 93 | 1010.5 |
| 20260507012554 | 18 | 246 | 0.0 | 1.6 | 0.00 | 0.33 | 0.33 | 93 | 1010.1 |
| 20260507012050 | 18 | 151 | 0.0 | 0.0 | 0.00 | 0.33 | 0.33 | 92 | 1010.3 |
| 20260507011548 | 18 | 157 | 0.0 | 1.6 | 0.00 | 0.33 | 0.33 | 92 | 1010.7 |
| 20260507011044 | 18 | 186 | 1.6 | 3.2 | 0.00 | 0.33 | 0.33 | 91 | 1010.4 |
| 20260507010538 | 18 | 216 | 3.2 | 3.2 | 0.00 | 0.33 | 0.33 | 91 | 1010.4 |
| 20260507010035 | 19 | 180 | 0.0 | 0.0 | 0.00 | 0.33 | 0.33 | 90 | 1010.3 |
| 20260507005533 | 19 | 114 | 1.6 | 1.6 | 0.00 | 0.33 | 0.33 | 89 | 1010.4 |
| 20260507005028 | 20 | 120 | 0.0 | 3.2 | 0.00 | 0.33 | 0.33 | 88 | 1010.5 |
| 20260507004526 | 19 | 180 | 0.0 | 1.6 | 0.00 | 0.33 | 0.33 | 88 | 1010.5 |
| 20260507004023 | 20 | 180 | 0.0 | 3.2 | 0.00 | 0.33 | 0.33 | 87 | 1010.5 |
| 20260507003519 | 20 | 206 | 1.6 | 1.6 | 0.00 | 0.33 | 0.33 | 87 | 1010.5 |
| 20260507003014 | 20 | 220 | 0.0 | 3.2 | 0.00 | 0.33 | 0.33 | 86 | 1010.5 |
| 20260507002510 | 20 | 250 | 3.2 | 8.0 | 0.00 | 0.33 | 0.33 | 85 | 1010.3 |
| 20260507002007 | 20 | 283 | 8.0 | 8.0 | 0.00 | 0.33 | 0.33 | 85 | 1010.4 |
| 20260507001503 | 20 | 233 | 3.2 | 4.8 | 0.00 | 0.33 | 0.33 | 85 | 1010.7 |
| 20260507001001 | 20 | 187 | 0.0 | 3.2 | 0.00 | 0.33 | 0.33 | 85 | 1010.7 |
| 20260507000456 | 20 | 210 | 3.2 | 4.8 | 0.00 | 0.33 | 0.33 | 84 | 1010.5 |
| 20260506235952 | 21 | 246 | 0.0 | 3.2 | 0.00 | 0.33 | 0.33 | 83 | 1010.3 |
| 20260506235450 | 21 | 262 | 0.0 | 4.8 | 0.00 | 0.33 | 0.33 | 82 | 1010.2 |
| 20260506234946 | 21 | 234 | 1.6 | 3.2 | 0.00 | 0.33 | 0.33 | 83 | 1010.1 |
| 20260506234443 | 21 | 235 | 3.2 | 4.8 | 0.00 | 0.33 | 0.33 | 82 | 1010.1 |
| 20260506233941 | 21 | 251 | 0.0 | 3.2 | 0.00 | 0.33 | 0.33 | 83 | 1010.0 |
| 20260506233437 | 21 | 206 | 1.6 | 3.2 | 0.00 | 0.33 | 0.33 | 82 | 1009.9 |
| 20260506232934 | 21 | 203 | 1.6 | 8.0 | 0.00 | 0.33 | 0.33 | 81 | 1010.1 |
| 20260506232430 | 21 | 180 | 0.0 | 3.2 | 0.00 | 0.33 | 0.33 | 81 | 1010.5 |
| 20260506231926 | 21 | 263 | 0.0 | 3.2 | 0.00 | 0.33 | 0.33 | 79 | 1010.1 |
| 20260506231423 | 22 | 246 | 0.0 | 3.2 | 0.00 | 0.33 | 0.33 | 78 | 1010.1 |
| 20260506230920 | 22 | 287 | 6.4 | 6.4 | 0.00 | 0.33 | 0.33 | 77 | 1010.2 |
| 20260506230417 | 22 | 192 | 0.0 | 3.2 | 0.00 | 0.33 | 0.33 | 77 | 1010.2 |
| 20260506225913 | 22 | 270 | 3.2 | 4.8 | 0.00 | 0.33 | 0.33 | 75 | 1010.0 |
| 20260506225411 | 22 | 0 | 1.6 | 6.4 | 0.00 | 0.33 | 0.33 | 77 | 1010.2 |
| 20260506224908 | 21 | 258 | 3.2 | 9.7 | 0.00 | 0.33 | 0.33 | 77 | 1010.1 |
| 20260506224405 | 21 | 325 | 0.0 | 8.0 | 0.00 | 0.33 | 0.33 | 78 | 1010.1 |
| 20260506223901 | 21 | 209 | 0.0 | 3.2 | 0.00 | 0.33 | 0.33 | 77 | 1010.2 |
| 20260506223356 | 21 | 198 | 3.2 | 6.4 | 0.00 | 0.33 | 0.33 | 77 | 1010.1 |
| 20260506222854 | 21 | 305 | 9.7 | 14.5 | 0.00 | 0.33 | 0.33 | 76 | 1010.1 |
| 20260506222350 | 22 | 0 | 0.0 | 4.8 | 0.00 | 0.33 | 0.33 | 76 | 1009.9 |
| 20260506221848 | 21 | 276 | 0.0 | 8.0 | 0.00 | 0.33 | 0.33 | 76 | 1010.2 |
| 20260506221345 | 22 | 330 | 3.2 | 12.9 | 0.00 | 0.33 | 0.33 | 76 | 1010.3 |
| 20260506220842 | 22 | 244 | 4.8 | 12.9 | 0.00 | 0.33 | 0.33 | 76 | 1010.0 |
| 20260506220337 | 22 | 270 | 0.0 | 4.8 | 0.00 | 0.33 | 0.33 | 76 | 1010.0 |
| 20260506215835 | 22 | 331 | 0.0 | 9.7 | 0.00 | 0.33 | 0.33 | 76 | 1010.1 |
| 20260506215330 | 22 | 198 | 1.6 | 9.7 | 0.00 | 0.33 | 0.33 | 77 | 1010.0 |
| 20260506214826 | 22 | 236 | 6.4 | 11.3 | 0.00 | 0.33 | 0.33 | 76 | 1010.2 |
| 20260506214323 | 22 | 247 | 3.2 | 9.7 | 0.00 | 0.33 | 0.33 | 77 | 1010.4 |
| 20260506213822 | 22 | 263 | 0.0 | 4.8 | 0.00 | 0.33 | 0.33 | 78 | 1010.5 |
| 20260506213319 | 22 | 301 | 3.2 | 8.0 | 0.00 | 0.33 | 0.33 | 77 | 1010.7 |
| 20260506212816 | 22 | 246 | 4.8 | 24.1 | 0.00 | 0.33 | 0.33 | 77 | 1010.6 |
| 20260506212311 | 22 | 263 | 4.8 | 4.8 | 0.00 | 0.33 | 0.33 | 78 | 1010.4 |
| 20260506211806 | 22 | 243 | 0.0 | 4.8 | 0.00 | 0.33 | 0.33 | 78 | 1010.4 |
| 20260506211303 | 22 | 237 | 3.2 | 8.0 | 0.00 | 0.33 | 0.33 | 78 | 1010.3 |
| 20260506210801 | 22 | 307 | 3.2 | 6.4 | 0.00 | 0.33 | 0.33 | 79 | 1009.9 |
| 20260506210257 | 22 | 199 | 3.2 | 4.8 | 0.00 | 0.33 | 0.33 | 80 | 1010.0 |
| 20260506205754 | 22 | 285 | 3.2 | 8.0 | 0.00 | 0.33 | 0.33 | 79 | 1010.2 |
| 20260506205250 | 22 | 240 | 0.0 | 3.2 | 0.00 | 0.33 | 0.33 | 82 | 1010.3 |
| 20260506204747 | 21 | 191 | 0.0 | 6.4 | 0.00 | 0.33 | 0.33 | 82 | 1010.3 |
| 20260506204244 | 21 | 261 | 0.0 | 3.2 | 0.00 | 0.33 | 0.33 | 83 | 1010.1 |
| 20260506203742 | 21 | 270 | 1.6 | 8.0 | 0.00 | 0.33 | 0.33 | 83 | 1010.2 |
| 20260506203239 | 21 | 16 | 3.2 | 3.2 | 0.00 | 0.33 | 0.33 | 85 | 1010.4 |
| 20260506202736 | 21 | 251 | 0.0 | 8.0 | 0.00 | 0.33 | 0.33 | 84 | 1010.1 |
| 20260506202233 | 21 | 206 | 0.0 | 11.3 | 0.00 | 0.33 | 0.33 | 84 | 1010.2 |
| 20260506201730 | 21 | 233 | 3.2 | 3.2 | 0.00 | 0.33 | 0.33 | 84 | 1010.1 |
| 20260506201226 | 21 | 229 | 0.0 | 4.8 | 0.00 | 0.33 | 0.33 | 87 | 1010.1 |
| 20260506200723 | 20 | 261 | 0.0 | 3.2 | 0.00 | 0.33 | 0.33 | 86 | 1009.9 |
| 20260506200220 | 20 | 209 | 1.6 | 1.6 | 0.00 | 0.33 | 0.33 | 87 | 1009.7 |
| 20260506195716 | 20 | 209 | 3.2 | 6.4 | 0.00 | 0.33 | 0.33 | 88 | 1009.7 |
| 20260506195212 | 20 | 216 | 3.2 | 4.8 | 0.00 | 0.33 | 0.33 | 88 | 1009.5 |
| 20260506194705 | 20 | 85 | 3.2 | 3.2 | 0.00 | 0.33 | 0.33 | 88 | 1009.7 |
| 20260506194201 | 20 | 261 | 0.0 | 8.0 | 0.00 | 0.33 | 0.33 | 89 | 1009.7 |
| 20260506193658 | 20 | 357 | 4.8 | 4.8 | 0.00 | 0.33 | 0.33 | 91 | 1010.1 |
| 20260506193155 | 20 | 215 | 1.6 | 4.8 | 0.00 | 0.33 | 0.33 | 90 | 1010.2 |
| 20260506192652 | 20 | 180 | 1.6 | 6.4 | 0.00 | 0.33 | 0.33 | 90 | 1010.1 |
| 20260506192148 | 19 | 319 | 0.0 | 6.4 | 0.00 | 0.33 | 0.33 | 90 | 1010.6 |
| 20260506191645 | 19 | 175 | 0.0 | 4.8 | 0.00 | 0.33 | 0.33 | 92 | 1010.6 |
| 20260506191141 | 19 | 251 | 3.2 | 4.8 | 0.00 | 0.33 | 0.33 | 92 | 1010.7 |
| 20260506190639 | 19 | 180 | 0.0 | 4.8 | 0.00 | 0.33 | 0.33 | 91 | 1010.7 |
| 20260506190135 | 19 | 210 | 3.2 | 3.2 | 0.05 | 0.33 | 0.33 | 92 | 1010.7 |
| 20260506185633 | 18 | 245 | 3.2 | 4.8 | 0.05 | 0.33 | 0.33 | 91 | 1010.9 |
| 20260506185129 | 18 | 323 | 0.0 | 3.2 | 0.05 | 0.33 | 0.33 | 91 | 1010.9 |
| 20260506184626 | 18 | 209 | 0.0 | 20.9 | 0.05 | 0.33 | 0.33 | 90 | 1010.6 |
| 20260506184123 | 18 | 270 | 0.0 | 6.4 | 0.00 | 0.30 | 0.30 | 90 | 1010.9 |
| 20260506183620 | 18 | 140 | 4.8 | 6.4 | 0.00 | 0.30 | 0.30 | 90 | 1011.2 |
| 20260506183116 | 18 | 248 | 3.2 | 6.4 | 0.00 | 0.30 | 0.30 | 90 | 1011.2 |
| 20260506182614 | 19 | 352 | 0.0 | 6.4 | 0.00 | 0.30 | 0.30 | 90 | 1011.5 |
| 20260506182110 | 19 | 204 | 3.2 | 8.0 | 0.00 | 0.30 | 0.30 | 89 | 1011.7 |
| 20260506181608 | 18 | 261 | 9.7 | 20.9 | 0.00 | 0.30 | 0.30 | 88 | 1011.5 |
| 20260506181105 | 18 | 341 | 0.0 | 11.3 | 0.00 | 0.30 | 0.30 | 89 | 1011.5 |
| 20260506180602 | 18 | 270 | 3.2 | 14.5 | 0.00 | 0.30 | 0.30 | 90 | 1011.9 |
| 20260506180059 | 19 | 270 | 8.0 | 17.7 | 0.05 | 0.30 | 0.30 | 89 | 1011.7 |
| 20260506175554 | 18 | 173 | 0.0 | 9.7 | 0.05 | 0.30 | 0.30 | 88 | 1011.6 |
| 20260506175051 | 19 | 211 | 4.8 | 6.4 | 0.00 | 0.30 | 0.30 | 89 | 1011.6 |
| 20260506174550 | 19 | 297 | 1.6 | 8.0 | 0.00 | 0.30 | 0.30 | 87 | 1011.6 |
| 20260506174046 | 19 | 267 | 4.8 | 8.0 | 0.00 | 0.30 | 0.30 | 87 | 1011.8 |
| 20260506173544 | 18 | 29 | 1.6 | 11.3 | 0.00 | 0.30 | 0.30 | 87 | 1011.6 |
| 20260506173040 | 18 | 237 | 4.8 | 8.0 | 0.00 | 0.30 | 0.30 | 87 | 1011.8 |
| 20260506172538 | 18 | 246 | 0.0 | 6.4 | 0.00 | 0.30 | 0.30 | 89 | 1011.8 |
| 20260506172034 | 18 | 270 | 3.2 | 8.0 | 0.00 | 0.30 | 0.30 | 88 | 1011.5 |
| 20260506171531 | 18 | 29 | 6.4 | 8.0 | 0.00 | 0.30 | 0.30 | 89 | 1011.9 |
| 20260506171028 | 18 | 20 | 1.6 | 17.7 | 0.00 | 0.30 | 0.30 | 89 | 1011.9 |
| 20260506170526 | 18 | 228 | 3.2 | 8.0 | 0.00 | 0.30 | 0.30 | 89 | 1012.1 |
| 20260506170018 | 18 | 190 | 6.4 | 8.0 | 0.00 | 0.30 | 0.30 | 90 | 1012.0 |
| 20260506165516 | 18 | 249 | 4.8 | 6.4 | 0.00 | 0.30 | 0.30 | 91 | 1011.7 |
| 20260506165012 | 18 | 165 | 0.0 | 4.8 | 0.00 | 0.30 | 0.30 | 91 | 1012.0 |
| 20260506164509 | 18 | 262 | 0.0 | 4.8 | 0.00 | 0.30 | 0.30 | 90 | 1012.1 |
| 20260506164006 | 18 | 331 | 1.6 | 9.7 | 0.00 | 0.30 | 0.30 | 90 | 1012.0 |
| 20260506163502 | 18 | 123 | 3.2 | 4.8 | 0.00 | 0.30 | 0.30 | 92 | 1012.1 |
| 20260506162956 | 17 | 198 | 0.0 | 8.0 | 0.00 | 0.30 | 0.30 | 92 | 1011.9 |
| 20260506162454 | 17 | 205 | 0.0 | 14.5 | 0.00 | 0.30 | 0.30 | 93 | 1011.9 |
| 20260506161951 | 17 | 206 | 0.0 | 4.8 | 0.00 | 0.30 | 0.30 | 93 | 1012.2 |
| 20260506161449 | 17 | 169 | 3.2 | 8.0 | 0.00 | 0.30 | 0.30 | 94 | 1011.7 |
| 20260506160946 | 17 | 156 | 9.7 | 9.7 | 0.00 | 0.30 | 0.30 | 94 | 1011.8 |